Find TAURUS 3

NORAD ID: 66296 Int'l Des: NNA 2025-248 Owner: TURKS Country: TR operational
LEOCIRCULAR

实时位置

正在加载3D地球...

关于 TAURUS 3

正在加载描述...

即将过境

Passes for default location (London). Set your location on the main map for personalized predictions.

高度历史

Loading altitude history...

两行轨道根数

1 66296U 25248D 26106.03083502 .00004521 00000-0 21353-3 0 9995
2 66296 45.4035 93.9912 0004259 60.7279 299.4033 15.20872654 25069
Epoch: Apr 16, 2026 • Age: 33 hours

当前状态

高度 515.4 km
速度 7.61 km/s
星下点 -35.77°S, 52.08°E
发射日期 Nov 2, 2025
运行时间 0.4 years
类型 other

技术详情

分类 Payload
质量 0.45 kg
干质量 0.45 kg
总质量 0.45 kg
长度 0.03 m
直径 0.10 m
跨度 0.10 m
形状 Box
制造商 GUMUSH
平台类型 Cubesat 0.25U
阶段状态 In Orbit
所有者/国家 TURKS/TR

Most Searched